| time (UTC) | temp F | wind direction | speed MPH | gust MPH | rain 1hr in | rain 24hr in | rain mn in | humidity % | barometer mb |
| 20260507050530 | 51 | 282 | 1.0 | 5.0 | 0.03 | 0.17 | 0.16 | 99 | 1010.4 |
| 20260507041516 | 51 | 254 | 1.0 | 3.0 | 0.03 | 0.15 | 0.14 | 99 | 1009.8 |
| 20260507035517 | 51 | 257 | 0.0 | 1.0 | 0.03 | 0.14 | 0.13 | 99 | 1009.6 |
| 20260507030520 | 51 | 274 | 1.0 | 2.0 | 0.04 | 0.12 | 0.11 | 99 | 1009.4 |
| 20260507024520 | 51 | 242 | 0.0 | 1.0 | 0.03 | 0.11 | 0.10 | 99 | 1009.2 |
| 20260507021522 | 51 | 266 | 0.0 | 1.0 | 0.05 | 0.09 | 0.08 | 99 | 1009.2 |
| 20260507020521 | 51 | 237 | 1.0 | 3.0 | 0.05 | 0.08 | 0.07 | 99 | 1009.2 |
| 20260507015522 | 52 | 267 | 1.0 | 5.0 | 0.05 | 0.08 | 0.07 | 99 | 1009.1 |
| 20260507013523 | 52 | 202 | 0.0 | 2.0 | 0.04 | 0.07 | 0.06 | 99 | 1009.0 |
| 20260507012525 | 52 | 269 | 1.0 | 3.0 | 0.02 | 0.06 | 0.04 | 99 | 1008.9 |
| 20260507010524 | 53 | 260 | 1.0 | 6.0 | 0.02 | 0.04 | 0.02 | 98 | 1009.0 |
| 20260507003525 | 53 | 273 | 1.0 | 5.0 | 0.02 | 0.04 | 0.02 | 98 | 1009.0 |
| 20260507000527 | 54 | 272 | 0.0 | 2.0 | 0.00 | 0.02 | 0.00 | 96 | 1008.8 |
| 20260506235527 | 54 | 281 | 0.0 | 1.0 | 0.00 | 0.02 | 0.00 | 96 | 1008.8 |
| 20260506234527 | 54 | 0.0 | 2.0 | 0.00 | 0.02 | 0.00 | 95 | 1008.8 | |
| 20260506230529 | 54 | 0.0 | 0.0 | 0.00 | 0.02 | 0.00 | 96 | 1008.7 | |
| 20260506225530 | 54 | 255 | 1.0 | 2.0 | 0.00 | 0.02 | 0.00 | 96 | 1008.6 |
| 20260506223530 | 55 | 261 | 0.0 | 1.0 | 0.01 | 0.02 | 0.00 | 96 | 1008.5 |
| 20260506221531 | 55 | 275 | 0.0 | 1.0 | 0.01 | 0.02 | 0.00 | 95 | 1008.4 |
| 20260506211534 | 55 | 0.0 | 0.0 | 0.00 | 0.01 | 0.01 | 92 | 1008.1 | |
| 20260506205535 | 55 | 0.0 | 0.0 | 0.00 | 0.01 | 0.01 | 90 | 1008.0 | |
| 20260506204535 | 56 | 0.0 | 0.0 | 0.00 | 0.01 | 0.01 | 89 | 1008.0 | |
| 20260506202536 | 57 | 0.0 | 0.0 | 0.00 | 0.02 | 0.01 | 86 | 1008.0 | |
| 20260506194537 | 58 | 281 | 1.0 | 3.0 | 0.00 | 0.02 | 0.01 | 84 | 1007.7 |
| 20260506191539 | 58 | 280 | 0.0 | 2.0 | 0.00 | 0.02 | 0.01 | 85 | 1007.4 |
| 20260506184540 | 59 | 0.0 | 0.0 | 0.00 | 0.09 | 0.01 | 84 | 1006.9 | |
| 20260506183540 | 59 | 0.0 | 0.0 | 0.00 | 0.15 | 0.01 | 84 | 1006.6 | |
| 20260506182542 | 59 | 0.0 | 0.0 | 0.00 | 0.17 | 0.01 | 84 | 1006.6 | |
| 20260506173544 | 62 | 272 | 0.0 | 2.0 | 0.00 | 0.52 | 0.01 | 74 | 1006.3 |
| 20260506172543 | 62 | 269 | 0.0 | 1.0 | 0.00 | 0.63 | 0.01 | 72 | 1006.2 |
| 20260506171516 | 62 | 274 | 0.0 | 1.0 | 0.00 | 0.72 | 0.01 | 72 | 1006.2 |
| 20260506163517 | 63 | 282 | 1.0 | 3.0 | 0.00 | 0.76 | 0.01 | 70 | 1006.1 |
| 20260506155519 | 64 | 283 | 1.0 | 3.0 | 0.00 | 0.76 | 0.01 | 62 | 1006.2 |
| 20260506151521 | 65 | 272 | 1.0 | 3.0 | 0.00 | 0.76 | 0.01 | 61 | 1006.3 |
| 20260506150521 | 65 | 268 | 2.0 | 5.0 | 0.00 | 0.76 | 0.01 | 61 | 1006.3 |
| 20260506145521 | 66 | 224 | 1.0 | 2.0 | 0.00 | 0.76 | 0.01 | 61 | 1006.3 |
| 20260506144522 | 66 | 296 | 2.0 | 8.0 | 0.00 | 0.76 | 0.01 | 59 | 1006.2 |
| 20260506143522 | 67 | 263 | 1.0 | 6.0 | 0.00 | 0.76 | 0.01 | 58 | 1006.4 |
| 20260506142523 | 67 | 277 | 1.0 | 5.0 | 0.00 | 0.76 | 0.01 | 58 | 1006.5 |
| 20260506141523 | 67 | 239 | 2.0 | 7.0 | 0.00 | 0.76 | 0.01 | 59 | 1006.6 |
| 20260506140524 | 66 | 273 | 1.0 | 5.0 | 0.00 | 0.76 | 0.01 | 60 | 1006.6 |
| 20260506134524 | 66 | 244 | 1.0 | 3.0 | 0.00 | 0.76 | 0.01 | 60 | 1006.6 |
| 20260506133525 | 66 | 253 | 1.0 | 3.0 | 0.00 | 0.76 | 0.01 | 60 | 1006.6 |
| 20260506130555 | 65 | 225 | 1.0 | 5.0 | 0.00 | 0.76 | 0.01 | 61 | 1006.8 |
| 20260506110531 | 63 | 236 | 1.0 | 6.0 | 0.00 | 0.76 | 0.01 | 70 | 1007.2 |
| 20260506105531 | 66 | 259 | 2.0 | 3.0 | 0.00 | 0.76 | 0.01 | 64 | 1007.2 |
| 20260506104532 | 65 | 253 | 2.0 | 7.0 | 0.00 | 0.76 | 0.01 | 68 | 1007.5 |
| 20260506101533 | 63 | 255 | 1.0 | 3.0 | 0.00 | 0.76 | 0.01 | 69 | 1007.5 |
| 20260506100534 | 63 | 281 | 2.0 | 6.0 | 0.00 | 0.76 | 0.01 | 72 | 1007.5 |
| 20260506095534 | 63 | 289 | 3.0 | 7.0 | 0.00 | 0.76 | 0.01 | 70 | 1007.5 |
| 20260506094534 | 64 | 260 | 2.0 | 8.0 | 0.00 | 0.76 | 0.01 | 70 | 1007.4 |
| 20260506092535 | 64 | 302 | 3.0 | 7.0 | 0.00 | 0.76 | 0.01 | 71 | 1007.4 |
| 20260506091535 | 63 | 258 | 2.0 | 6.0 | 0.00 | 0.76 | 0.01 | 77 | 1007.5 |
| 20260506090536 | 62 | 218 | 1.0 | 3.0 | 0.00 | 0.76 | 0.01 | 79 | 1007.5 |
| 20260506085536 | 62 | 297 | 1.0 | 5.0 | 0.00 | 0.76 | 0.01 | 80 | 1007.5 |
| 20260506081522 | 59 | 280 | 2.0 | 7.0 | 0.00 | 0.76 | 0.01 | 86 | 1007.1 |
| 20260506071525 | 57 | 241 | 1.0 | 5.0 | 0.00 | 0.76 | 0.01 | 94 | 1007.0 |
| 20260506070525 | 55 | 272 | 1.0 | 5.0 | 0.00 | 0.76 | 0.01 | 99 | 1007.1 |